Wind_Speed
33 36 39 38 39 39 38 39 42 48 49 47 48 47 45 46 45 44 44 45 44 49 49 49 49 49 48 46 48 50 53 48 48 50 47 47 52 51 49 48 47 47 43
29 32 34 38 38 39 40 39 41 44 48 51 52 51 50 48 48 48 45 44 47 48 52 56 57 57 54 54 52 55 57 55 52 52 54 53 56 57 56 53 55 52 54
28 28 31 34 35 38 40 41 40 41 44 47 52 53 51 51 51 51 50 48 49 50 52 55 62 63 63 60 59 59 61 61 57 59 60 59 58 64 63 64 63 62 59
30 29 29 31 33 35 36 39 40 40 42 43 48 51 53 53 54 54 55 54 55 55 55 56 57 63 68 67 66 66 64 66 66 64 66 69 66 64 65 72 69 71 68
31 30 31 31 31 31 33 35 37 39 41 43 45 49 51 53 53 56 58 58 59 60 59 59 59 61 60 66 72 72 71 73 71 70 69 71 74 72 73 72 78 75 78
31 30 28 30 31 31 31 32 33 34 36 38 41 45 48 52 55 57 59 61 61 60 62 64 64 64 66 66 66 73 75 74 77 77 76 77 77 79 78 81 78 82 81
28 29 28 28 29 30 30 30 31 32 34 36 38 41 43 45 48 51 54 56 56 57 59 60 61 63 64 67 69 70 72 77 81 82 81 79 82 83 84 84 85 84 84
26 27 28 29 30 31 32 33 34 37 39 40 41 42 44 45 47 47 47 48 50 53 55 57 59 61 63 65 66 67 69 72 74 76 78 79 81 83 85 87 88 88 88
27 27 28 30 32 34 36 39 41 42 43 43 43 44 45 45 46 46 47 48 49 51 51 53 55 58 60 61 63 66 69 71 73 75 78 80 82 83 84 86 88 90 91
27 27 29 31 33 33 30 28 26 25 24 24 23 23 24 25 26 26 29 31 32 35 38 39 39 39 42 42 45 49 55 61 64 68 72 77 80 84 86 88 89 90 92
22 22 17 11 6 2 4 5 9 13 14 14 14 15 15 15 14 13 13 12 12 12 12 13 13 15 17 17 19 22 24 26 29 31 33 39 44 50 58 69 81 88 95
7 10 13 17 21 24 25 27 28 28 27 26 25 25 23 23 21 21 22 19 19 20 18 18 17 19 17 20 23 21 19 21 21 19 21 24 27 35 41 45 50 56 63
22 23 24 25 26 28 28 29 30 29 28 28 28 27 26 23 22 21 20 21 21 23 22 22 23 25 24 22 22 25 27 30 30 33 32 33 34 34 31 33 37 44 51
27 27 28 27 27 27 29 28 27 25 23 22 20 21 21 21 22 22 23 24 23 23 23 26 27 28 32 30 31 33 35 39 40 43 46 44 44 43 39 37 37 36 38
29 29 28 29 29 27 27 25 24 22 22 22 21 20 22 23 23 21 22 20 22 22 24 27 30 33 36 36 36 36 39 41 44 47 48 50 52 53 53 49 44 42 40
29 27 27 27 24 23 22 21 21 20 20 21 20 20 21 21 21 19 19 19 20 21 24 30 33 36 38 37 37 39 42 45 49 55 53 54 58 56 58 57 55 50 45
25 24 23 21 19 19 17 16 15 18 20 20 19 17 16 16 15 16 17 18 20 22 26 31 35 37 40 40 41 43 46 50 53 55 57 60 61 62 65 65 60 56 51
22 20 17 16 15 14 11 10 10 13 15 17 18 18 12 12 13 15 14 15 16 21 26 32 35 37 41 41 44 48 51 53 56 56 60 63 66 66 68 70 64 61 58
17 15 13 11 10 8 7 6 5 6 11 13 13 13 13 15 14 16 15 16 17 21 27 32 35 36 41 43 46 49 52 56 61 62 64 68 68 70 72 74 71 63 58
12 10 8 7 6 5 3 1 1 5 9 9 10 13 16 15 16 17 18 19 20 24 29 33 34 37 42 46 48 51 56 59 62 64 66 69 73 75 75 77 73 72 64
10 9 7 7 7 5 4 3 2 4 5 9 11 12 15 15 17 19 22 20 22 27 31 35 35 40 44 45 51 53 57 60 66 69 69 69 75 79 79 79 75 75 76
9 8 5 7 6 7 8 6 3 4 6 11 11 12 14 17 18 19 21 21 24 26 30 33 37 42 45 48 49 53 63 69 71 75 77 78 78 82 83 82 78 74 77
6 5 5 4 4 4 6 6 4 4 7 10 9 9 11 15 18 21 22 23 26 30 34 36 40 44 47 49 51 56 60 67 71 76 78 79 84 85 87 88 83 80 81
6 6 6 4 3 4 6 6 2 3 6 7 7 10 12 15 18 20 23 26 30 34 36 40 44 47 50 52 54 58 64 66 70 76 82 83 87 89 90 91 89 87 84
8 9 8 5 5 6 6 4 1 3 5 11 13 14 13 16 21 22 28 29 32 36 40 44 49 50 52 54 58 61 65 69 71 75 81 87 90 93 94 96 93 92 92
10 9 10 8 6 4 3 3 2 5 13 14 14 16 15 19 23 26 28 30 36 41 44 48 52 54 55 56 61 64 69 75 77 77 82 85 91 98 97 98 97 95 93
Wind_Direction
228 231 235 237 239 239 238 240 240 239 242 245 245 247 249 247 245 244 247 246 249 252 253 254 258 261 261 262 258 263 266 270 267 266 266 266 263 273 260 270 269 271 271
234 232 234 237 241 242 241 244 246 246 244 242 243 249 251 252 250 245 249 256 257 252 252 253 254 256 257 258 260 260 260 266 264 266 265 262 265 266 264 265 268 263 266
236 240 240 240 241 242 243 246 249 248 247 243 243 247 252 253 253 250 250 256 260 262 258 257 255 256 257 258 259 259 258 263 263 264 265 265 263 263 264 259 266 267 266
235 239 243 245 246 246 246 248 251 252 250 250 248 249 251 256 258 257 257 262 265 264 263 263 261 259 259 259 258 258 258 258 261 262 260 263 265 260 262 258 262 261 264
234 239 243 246 248 249 251 251 252 254 255 255 254 253 254 256 257 259 261 264 264 265 263 265 266 262 264 263 261 259 260 261 264 264 265 265 261 264 261 259 260 263 259
237 241 250 250 253 256 257 257 258 258 258 258 258 258 258 258 260 261 262 264 264 263 263 263 264 264 265 265 265 262 261 264 263 264 265 265 266 267 265 267 264 262 264
242 247 252 256 258 259 260 261 262 263 263 262 262 261 260 260 261 263 264 264 264 264 266 267 268 268 268 267 266 265 266 267 267 266 267 266 265 265 265 265 266 265 264
248 254 257 261 264 266 267 267 267 268 266 264 263 261 261 262 262 264 265 267 267 268 269 270 271 271 271 272 272 271 271 270 270 269 269 268 267 266 265 263 263 263 263
253 260 264 269 273 274 273 272 272 270 269 268 266 265 264 265 265 265 265 267 268 269 270 270 271 271 272 273 273 272 272 272 272 272 272 271 270 269 268 266 264 262 261
260 268 275 275 276 276 277 274 274 273 273 272 272 273 275 273 274 273 273 272 273 274 275 277 278 277 279 278 279 278 278 276 276 273 271 272 270 269 268 266 265 264 263
263 269 272 271 265 221 125 107 104 102 101 98 94 91 89 84 83 80 70 57 46 30 23 12 359 346 347 332 322 321 317 313 304 299 295 290 285 280 277 273 268 266 263
188 141 130 122 114 108 102 99 96 94 91 89 88 88 86 81 84 78 77 76 73 70 67 61 52 40 37 36 37 29 23 15 4 342 334 326 317 299 295 290 282 275 270
126 121 117 113 108 104 102 101 100 96 96 97 98 96 96 95 92 80 74 63 60 55 49 45 47 38 34 31 29 21 14 10 11 4 357 351 347 337 327 313 300 288 280
119 119 115 112 111 110 107 108 107 103 100 101 97 88 81 76 71 67 60 60 57 46 43 38 34 32 28 24 25 21 18 13 12 8 6 360 353 349 338 331 323 310 295
123 120 117 115 114 112 112 110 105 91 90 88 83 81 75 73 68 66 55 54 46 38 31 27 26 22 15 18 18 18 15 15 12 11 12 7 4 358 353 346 337 325 314
127 125 122 117 113 113 111 107 100 94 87 82 80 82 76 70 63 55 49 45 36 31 23 21 20 16 13 14 14 12 12 9 6 6 8 9 7 2 357 354 347 338 326
124 122 124 120 118 114 117 107 96 88 83 80 79 83 79 68 56 46 36 29 24 18 18 15 14 12 10 7 7 7 6 3 2 5 4 5 3 2 0 357 350 347 340
131 130 129 130 125 118 117 104 86 72 74 70 68 68 69 52 41 27 23 18 12 11 10 10 10 7 6 5 5 3 3 0 2 3 3 2 1 359 358 357 353 348 345
142 139 135 129 131 122 109 87 69 60 57 53 55 54 45 34 23 18 15 10 8 8 3 5 6 5 3 4 1 359 0 359 1 1 1 0 359 358 356 355 354 350 346
154 154 160 165 162 143 144 143 36 45 38 47 41 33 22 17 10 12 8 9 6 3 1 2 5 2 360 0 357 359 359 358 360 0 360 358 356 355 354 353 353 350 349
181 193 205 215 215 210 208 228 286 7 2 14 17 22 12 10 1 3 4 5 1 358 359 358 0 359 357 356 358 357 357 358 357 356 358 357 355 353 353 353 355 352 350
181 174 170 190 204 224 231 236 271 296 357 16 27 15 1 1 359 2 358 357 356 354 356 355 355 356 358 354 357 357 355 355 355 354 354 354 354 352 351 350 352 352 351
182 194 182 168 182 185 214 220 244 3 27 17 27 19 1 6 4 1 1 355 348 350 353 353 355 350 352 355 354 353 354 353 352 353 353 352 350 350 348 348 350 351 350
154 133 137 154 142 141 152 171 189 349 4 42 37 12 3 2 359 357 354 349 347 348 349 354 352 347 348 350 351 353 353 352 354 352 350 352 349 347 347 347 349 347 347
145 135 126 109 117 112 110 134 149 82 17 0 357 347 342 340 341 346 345 342 341 343 348 352 351 344 345 346 348 349 351 349 350 353 350 349 346 346 346 347 347 348 347
156 147 145 131 124 127 127 139 174 347 342 342 340 345 339 336 338 335 339 337 340 342 344 346 347 345 345 346 345 347 349 351 349 349 349 347 346 345 346 348 349 348 345
Height
10950 10952 10954 10956 10959 10961 10963 10964 10966 10968 10971 10972 10974 10976 10977 10979 10980 10983 10984 10985 10985 10985 10985 10985 10985 10986 10986 10986 10987 10985 10985 10985 10986 10986 10987 10987 10987 10985 10987 10988 10988 10989 10990
10946 10948 10950 10952 10954 10956 10958 10960 10961 10963 10965 10967 10968 10970 10972 10973 10975 10977 10978 10979 10980 10981 10981 10980 10980 10981 10980 10980 10980 10980 10980 10979 10979 10979 10979 10980 10980 10980 10980 10980 10980 10982 10982
10942 10944 10946 10947 10949 10951 10952 10954 10956 10957 10959 10960 10962 10964 10966 10967 10969 10971 10972 10973 10974 10975 10976 10975 10975 10974 10974 10973 10974 10973 10973 10972 10972 10971 10971 10971 10972 10971 10971 10972 10972 10973 10973
10938 10940 10941 10943 10945 10946 10948 10949 10950 10952 10954 10955 10956 10958 10959 10961 10962 10964 10965 10966 10966 10967 10968 10967 10967 10967 10966 10965 10965 10965 10963 10963 10963 10963 10963 10962 10963 10962 10962 10962 10961 10963 10962
10934 10936 10937 10938 10940 10941 10943 10944 10945 10946 10948 10949 10951 10952 10953 10954 10955 10956 10956 10957 10958 10958 10958 10958 10957 10957 10956 10956 10956 10955 10955 10954 10954 10954 10953 10952 10951 10951 10950 10951 10950 10951 10951
10930 10931 10933 10934 10936 10937 10938 10939 10940 10940 10941 10942 10944 10945 10946 10947 10947 10948 10949 10949 10950 10950 10949 10948 10948 10948 10947 10946 10944 10944 10944 10943 10943 10942 10942 10941 10939 10937 10937 10936 10936 10937 10936
10927 10928 10930 10930 10931 10932 10933 10934 10935 10935 10936 10936 10936 10937 10938 10938 10939 10939 10940 10941 10941 10939 10938 10938 10938 10937 10936 10935 10933 10932 10931 10929 10928 10927 10926 10926 10925 10923 10922 10921 10920 10920 10920
10924 10926 10926 10926 10927 10928 10928 10928 10928 10928 10928 10928 10929 10929 10930 10931 10931 10932 10932 10931 10930 10929 10929 10929 10927 10926 10924 10922 10921 10919 10917 10916 10914 10912 10911 10910 10909 10908 10905 10906 10904 10903 10902
10922 10922 10923 10923 10922 10921 10920 10920 10919 10919 10919 10919 10919 10920 10921 10922 10923 10923 10923 10923 10922 10921 10922 10920 10918 10915 10914 10912 10910 10907 10905 10903 10900 10898 10895 10892 10890 10889 10887 10885 10885 10883 10884
10918 10919 10918 10917 10916 10915 10913 10912 10911 10911 10910 10910 10911 10912 10913 10913 10915 10915 10915 10915 10914 10913 10913 10912 10910 10906 10905 10902 10898 10896 10893 10891 10888 10883 10880 10877 10873 10871 10868 10865 10863 10863 10862
10914 10914 10913 10912 10911 10910 10910 10910 10910 10909 10909 10909 10910 10910 10911 10912 10912 10913 10913 10913 10912 10911 10911 10909 10907 10905 10902 10899 10896 10892 10889 10884 10879 10873 10869 10863 10858 10852 10848 10845 10842 10839 10838
10911 10911 10911 10911 10911 10911 10912 10912 10912 10912 10912 10912 10913 10913 10914 10914 10916 10916 10916 10916 10916 10914 10913 10911 10909 10905 10902 10898 10894 10891 10885 10881 10876 10871 10865 10858 10851 10844 10837 10830 10824 10819 10816
10911 10912 10914 10914 10914 10914 10915 10915 10916 10916 10917 10917 10918 10918 10918 10919 10919 10919 10919 10918 10917 10915 10912 10910 10907 10904 10901 10897 10892 10887 10883 10878 10871 10866 10859 10852 10844 10837 10830 10822 10813 10806 10800
10913 10914 10915 10917 10918 10919 10919 10920 10920 10921 10921 10922 10922 10922 10922 10922 10922 10921 10921 10919 10918 10916 10913 10910 10906 10903 10899 10893 10888 10884 10879 10873 10865 10861 10853 10845 10837 10829 10822 10814 10805 10797 10788
10916 10918 10919 10921 10922 10923 10924 10925 10925 10926 10926 10926 10926 10926 10925 10925 10924 10923 10921 10919 10916 10914 10910 10907 10904 10900 10896 10890 10884 10879 10874 10869 10864 10856 10848 10840 10831 10822 10813 10805 10796 10788 10779
10919 10921 10923 10925 10926 10926 10927 10928 10929 10930 10929 10929 10928 10928 10928 10927 10925 10923 10921 10919 10916 10912 10909 10905 10902 10898 10893 10888 10881 10876 10871 10864 10857 10849 10841 10835 10825 10816 10807 10797 10787 10778 10769
10923 10925 10926 10927 10929 10929 10930 10930 10931 10931 10931 10931 10930 10929 10928 10927 10925 10923 10920 10918 10914 10911 10908 10904 10900 10895 10889 10884 10879 10874 10867 10860 10852 10844 10835 10827 10820 10811 10801 10790 10778 10768 10758
10925 10927 10928 10929 10930 10931 10931 10932 10932 10932 10932 10932 10931 10930 10929 10927 10925 10922 10920 10917 10913 10910 10906 10902 10897 10892 10887 10881 10875 10868 10862 10854 10847 10839 10830 10820 10811 10803 10795 10784 10772 10760 10748
10927 10928 10930 10931 10931 10932 10932 10932 10932 10932 10933 10932 10931 10930 10928 10926 10923 10921 10917 10914 10911 10908 10904 10900 10896 10890 10884 10877 10871 10864 10856 10848 10840 10831 10820 10811 10802 10793 10782 10773 10765 10754 10742
10927 10928 10930 10931 10931 10931 10932 10932 10932 10932 10932 10932 10930 10928 10926 10923 10921 10918 10915 10911 10909 10906 10902 10898 10894 10887 10879 10874 10867 10859 10851 10842 10833 10825 10814 10803 10792 10784 10773 10763 10750 10739 10731
10927 10928 10929 10929 10930 10930 10931 10931 10931 10931 10931 10931 10929 10926 10924 10922 10919 10916 10913 10910 10907 10902 10898 10894 10889 10883 10876 10869 10861 10853 10846 10836 10828 10818 10809 10799 10787 10775 10765 10753 10743 10729 10716
10925 10926 10927 10928 10928 10928 10929 10929 10930 10930 10930 10928 10927 10925 10922 10920 10917 10914 10911 10907 10903 10899 10895 10889 10883 10878 10872 10864 10856 10847 10835 10825 10816 10807 10797 10786 10777 10766 10755 10744 10732 10721 10709
10924 10924 10925 10925 10926 10926 10927 10928 10928 10928 10927 10927 10925 10923 10921 10918 10915 10912 10908 10904 10900 10894 10889 10884 10878 10872 10866 10860 10851 10844 10836 10823 10809 10799 10789 10776 10766 10755 10745 10733 10721 10710 10697
10922 10923 10923 10923 10923 10924 10924 10926 10926 10926 10926 10925 10923 10920 10917 10914 10911 10908 10904 10899 10894 10889 10884 10878 10872 10865 10859 10852 10845 10837 10828 10820 10811 10793 10778 10769 10755 10743 10730 10720 10707 10694 10684
10921 10922 10922 10922 10922 10922 10923 10924 10924 10923 10923 10921 10919 10917 10914 10911 10908 10904 10899 10894 10889 10884 10878 10872 10866 10859 10852 10843 10836 10828 10820 10811 10803 10794 10778 10759 10745 10735 10721 10708 10692 10677 10662
10919 10920 10921 10921 10921 10921 10921 10921 10921 10920 10919 10918 10915 10913 10910 10907 10903 10899 10895 10889 10884 10878 10871 10865 10859 10852 10845 10835 10826 10818 10809 10801 10791 10784 10775 10761 10742 10717 10704 10694 10681 10667 10653